Simultaneous Nadir Overpasses (SNOs) Predictions

Prediction of SNOs between NOAA-19 and TERRA Satellite Orbit:

Table of predicted SNOs for the next 14.0 days since TLE Epoch: 1/28/2023
Index Date (NOAA-19) Time (NOAA-19) Lat,Lon (NOAA-19) SZA (NOAA-19 ) Date (TERRA) Time (TERRA) Lat,Lon (TERRA) SZA (TERRA ) Distance(km) Time Diff (sec)
1 01/30/2023 02:12:17 80.93,-177.76 99.97 01/30/2023 02:12:58 80.94,-177.76 100.00 1.44 41
2 01/30/2023 03:03:16 -80.92, -10.18 80.02 01/30/2023 03:02:21 -80.93, -10.25 80.04 1.29 55
3 02/01/2023 06:03:00 -80.93, -55.57 80.65 02/01/2023 06:03:47 -80.93, -55.61 80.64 0.86 47
4 02/01/2023 06:53:59 80.92, 112.10 99.38 02/01/2023 06:53:10 80.92, 111.94 99.34 3.01 49
5 02/03/2023 09:53:43 80.93, 66.87 98.74 02/03/2023 09:54:35 80.93, 66.76 98.75 2.21 52
6 02/03/2023 10:44:41 -80.92,-125.57 81.25 02/03/2023 10:43:58 -80.93,-125.66 81.27 1.61 43
7 02/05/2023 13:44:25 -80.93,-171.05 81.93 02/05/2023 13:45:23 -80.94,-170.93 81.90 2.37 58
8 02/05/2023 14:35:25 80.93, -3.36 98.10 02/05/2023 14:34:46 80.92, -3.46 98.07 1.76 39
9 02/07/2023 17:35:10 80.93, -49.07 97.38 02/07/2023 17:36:11 80.92, -48.90 97.40 3.14 61
10 02/07/2023 18:26:06 -80.93, 118.86 82.59 02/07/2023 18:25:34 -80.92, 118.76 82.61 2.00 32
11 02/09/2023 21:25:49 -80.93, 73.68 83.28 02/09/2023 21:26:58 -80.93, 73.58 83.26 1.94 69



Historial Predications of SNOs between NOAA-19 and TERRA
